Location: Dehesa de la Cepeda
(40.6574°N, 4.3013°W)
Time: 10:24:01
(UTC+00:00)

Vanguard 2 Rocket - Pass Details

Date: 23 October 2021
Orbit: 555 x 3324 km, 32.9° (Epoch: 08 December)

Event Time Altitude Azimuth Distance (km) Brightness Sun altitude
Rises 05:37:17 0° 232° (SW) 6,558 10.8 -12.0°
Reaches altitude 10° 05:42:35 10° 226° (SW) 5,131 10.3 -11.0°
Maximum altitude 05:54:34 38° 166° (SSE) 2,379 9.2 -8.8°
Drops below altitude 10° 06:01:49 10° 101° (E) 3,114 11.4 -7.4°
Sets 06:04:14 0° 92° (E) 3,796 12.5 -7.0°
